Current Version              Previous Version:    01  02  03  04  05  06  07  08  09  10  11  12  13  14  15  16  17  18  19  20  21  22  23  24  25  26  27  28  29  30  
   31  32  33  34  35  36  37  38  39  40  41  42  43  44  45  46  47  48  49  50  51  52  53  54  55  56  57  58  59  60  

[Printable]
657
ASUS44 KEWX 241510
RWRTX
SOUTH TEXAS REGIONAL WEATHER ROUNDUP
NATIONAL WEATHER SERVICE AUSTIN/SAN ANTONIO TX
1000 AM CDT THU JUL 24 2014

NOTE: "FAIR" INDICATED FEW OR NO CLOUDS BELOW 12,000 FEET WITH NO
SIGNIFICANT WEATHER AND/OR OBSTRUCTIONS TO VISIBILITY.

* - THESE STATIONS ARE NOT NWS OR FAA STATIONS...AND ARE NOT SUBJECT
    TO NWS AND FAA QUALITY CONTROL.

TXZ171-172-183>190-241600-
TEXAS HILL COUNTRY AND EDWARDS PLATEAU

CITY           SKY/WX    TMP DP  RH WIND       PRES   REMARKS
JUNCTION       CLOUDY    80  68  66 CALM      30.10S
*LLANO         MOSUNNY   84  72  65 E6        30.12R
BURNET         MOSUNNY   81  70  69 VRB3      30.11F
*HORSESHOE BAY PTSUNNY   80  69  68 CALM      30.09R
*KERRVILLE     CLOUDY    81  69  66 SE3       30.11R
*FREDERICKSBRG MOSUNNY   79  67  66 CALM      30.11R
*ROCKSPRINGS   CLOUDY    81  68  65 CALM      30.14F
*BOERNE STAGE  CLOUDY    79  68  69 CALM      30.10R
*CASTROVILLE   CLOUDY    81  69  65 CALM      30.06F
HONDO          CLOUDY    81  70  69 NE3       30.07S
*UVALDE        CLOUDY    81  72  74 E3        30.06R
DEL RIO        MOSUNNY   86  68  54 E6        30.04R
LAUGHLIN AFB   MOSUNNY   84  70  62 SE3       30.05R
CARRIZO SPRGS  PTSUNNY   84  70  61 SE5       30.01F
$$

TXZ173-191>194-202-209-217>225-228-241600-
CENTRAL AND SOUTH CENTRAL TEXAS

CITY           SKY/WX    TMP DP  RH WIND       PRES   REMARKS
GEORGETOWN     MOSUNNY   82  72  69 S7        30.07F
AUSTIN/BERGSTM CLOUDY    77  75  93 CALM      30.05F FOG
AUSTIN/MABRY   PTSUNNY   77  75  93 CALM      30.07F FOG
*AUSTIN/EXEC   CLOUDY    75  75 100 CALM      30.06F FOG
*LAGO VISTA    PTSUNNY   81  72  73 CALM      30.09F
SAN MARCOS     NOT AVBL
NEW BRAUNFELS  CLOUDY    80  73  79 NE8       30.06R
RANDOLPH AFB   CLOUDY    80  71  74 E2        30.06R
PT SAN ANTONIO CLOUDY    82  71  68 NE5       30.05S
SAN ANTONIO    CLOUDY    83  69  62 NW5       30.06S
STINSON FIELD  CLOUDY    82  72  71 CALM      30.03F
*PLEASANTON    CLOUDY    82  73  75 CALM      30.04S
*LA GRANGE     SUNNY     79  76  89 CALM      30.04S
*GIDDINGS      MOSUNNY   78  74  86 CALM      30.10S
*GONZALES      RAIN      78  76  94 NE9       30.06R
$$

TXZ163>164-176>182-195>201-210>213-226-227-235-241600-
SOUTHEAST TEXAS

CITY           SKY/WX    TMP DP  RH WIND       PRES   REMARKS
COLLEGE STN    SUNNY     81  69  67 NE6       30.06R
*BRYAN         SUNNY     81  70  70 N5        30.06R
*CALDWELL      SUNNY     79  73  83 NE3       30.09R
*CROCKETT      SUNNY     82  72  69 N3        30.08F
*BRENHAM       MOSUNNY   81  70  69 E3        30.07R
HUNTSVILLE     MOSUNNY   81  69  67 VRB3      30.06R
CONROE         MOSUNNY   81  70  69 N5        30.05R
HOUSTON BUSH   MOSUNNY   82  72  71 VRB5      30.03S
HOUSTON HOBBY  MOSUNNY   85  73  67 N3        30.02R HX  91
*HOUSTON SW AP PTSUNNY   84  74  70 W7        30.03R HX  91
PEARLAND       SUNNY     83  72  69 NW5       30.04R
HOUSTON HOOKS  MOSUNNY   83  74  74 W8        30.04S
ELLINGTON FLD  MOSUNNY   88  77  70 NE3       30.03S HX 100
SUGAR LAND     PTSUNNY   84  75  74 W3        30.03R HX  92
*HOUSTON EXEC  CLOUDY    77  75  94 NW12      30.06R
*CLEVELAND MUN SUNNY     81  72  74 N3        30.05S
*WHARTON       PTSUNNY   85  74  71 W8        30.04S HX  92
$$

TXZ214>216-236>238-241600-
THE UPPER TEXAS COAST

CITY           SKY/WX    TMP DP  RH WIND       PRES   REMARKS
*ORANGE        SUNNY     79  71  77 N6        30.04F
PORT ARTHUR    SUNNY     80  71  74 N13       30.02F
GALVESTON      MOSUNNY   85  74  69 N9        30.02S HX  92
ANGLETON       MOSUNNY   83  75  77 NW7       30.02S HX  90
*BAY CITY      DRIZZLE   81  81 100 CALM      30.03S HX  91
PALACIOS       PTSUNNY   84  75  74 W3        30.03R HX  92
$$

TXZ229>234-239>247-241600-
TEXAS COASTAL BEND AND RIO GRANDE PLAINS

CITY           SKY/WX    TMP DP  RH WIND       PRES   REMARKS
VICTORIA       PTSUNNY   84  77  79 NW7       30.04R HX  94
*BEEVILLE      PTSUNNY   86  74  68 S5        30.03R HX  94
ROCKPORT       MOSUNNY   84  76  76 NW6       30.01F HX  93
*PORT ARANSAS  PTSUNNY   83  75  77 SW5       30.01S HX  90
*PORT LAVACA   PTSUNNY   84  76  76 NW7       30.03R HX  92
*INGLESIDE     MOSUNNY   87  73  64 SW3       30.01F HX  94
CORPUS CHRISTI PTSUNNY   84  75  74 VRB3      30.02R HX  92
CORPUS NAS     PTSUNNY   85  77  77 CALM      30.01S HX  95
*ROBSTOWN      MOSUNNY   85  76  73 CALM      30.02S HX  94
ALICE          MOSUNNY   85  75  72 VRB6      30.01R HX  93
KINGSVILLE NAS PTSUNNY   86  78  77 S6        30.01R HX  98
COTULLA        PTSUNNY   83  72  69 E7        30.02S
*FAITH RANCH   PTSUNNY   82  72  69 SE5       30.03R
LAREDO         PTSUNNY   87  73  62 VRB5      30.03R HX  94
$$

TXZ248>255-241600-
DEEP SOUTH TEXAS

CITY           SKY/WX    TMP DP  RH WIND       PRES   REMARKS
BROWNSVILLE    MOSUNNY   86  75  69 S12       30.00S HX  95
PORT ISABEL    MOSUNNY   87  73  62 S9        30.00R HAZE    HX  94
*SOUTH PADRE   PTSUNNY   86  77  74 SE7       30.01R HX  97
HARLINGEN      PTSUNNY   87  76  69 S12       29.99S HX  97
*HEBBRONVILLE  SUNNY     84  73  69 SE5       30.03S
MCALLEN        SUNNY     87  74  64 SE13      29.99S HX  95
*WESLACO       PTSUNNY   86  73  65 S12       29.99F HX  94
FALFURRIAS     MOSUNNY   75  70  83 SE5       30.01R
EDINBURG       MOSUNNY   88  74  65 S9        30.00R HX  96
*ZAPATA        NOT AVBL
$$

TXZ213>215-236>238-242>244-246-247-251-254-255-241600-
CMAN STATIONS

STATION/POSITION TIME  TEMP    WIND        PRES    WAVE
                       AIR SEA DIR/SP/G            HT/PER
                 (UTC) (F)     (DEG/KT/KT) (MB)    (FT/S)
SABINE PASS      1500   78 86   10/ 11/ 12 1016.9
SEA RIM ST PARK  1500   78      10/  9/ 11 1017.2
NORTH JETTY/GLS  1500   80 90   50/  8/ 10   N/A
EAGLE POINT      1500   80 89   30/  9/ 11 1016.7
MORGANS POINT    1500   80 91   60/  3/  4 1016.6
MISSION/ARANSAS  1400   82     290/  5     1017.0
PORT O`CONNOR    1500          300/  5/  6   N/A
PORT ARANSAS     1500   82 85  170/  5/  5 1016.8
MALAQUITE BEACH  1500   82 81  130/  4/  5 1015.8
BAFFIN BAY       1500   82 83  150/  5/  6 1016.2
PORT ISABEL      1500   85 80  190/  9/ 12 1016.2
$$

GMZ080-GMZ150>470-241600-
OFFSHORE BUOY REPORTS

STATION/POSITION TIME  TEMP    WIND        PRES    WAVE
                       AIR SEA DIR/SP/G            HT/PER
                 (UTC) (F)     (DEG/KT/KT) (MB)    (FT/S)
90 E PT ARANSAS  1500   83 83  260/  4/  6 1016.9    1/ 5
35 NE PT MANSFLD 1500   82 83  230/  2/  2 1016.5    1/ 5
200 E PT ISABEL  1500   84 85  220/  6/  8 1016.5    1/ 4
$$